Location: Elbart
(49.6135°N, 11.9134°E)
Time: 09:24:41
(UTC+00:00)

Cosmos 1703 - Pass Details

Date: 09 April 2020
Orbit: 524 x 540 km, 82.5° (Epoch: 22 May)

Event Time Altitude Azimuth Distance (km) Brightness Sun altitude
Rises 19:00:10 0° 345° (NNW) 2,706 7.5 -10.5°
Reaches altitude 10° 19:02:22 10° 340° (NNW) 1,811 6.7 -10.8°
Maximum altitude 19:06:13 49° 265° (W) 702 4.3 -11.4°
Drops below altitude 10° 19:10:03 10° 191° (S) 1,799 5.8 -11.9°
Sets 19:12:14 0° 185° (S) 2,685 6.6 -12.2°
